Temperature
13 13 14 15 16 16 17 17 18 18 18 18 18 17 17 17 17 16 16 16 17 17 17 17 17 17 17 17 17 16 16 16 16 16 16 16 16 16
12 13 13 14 14 15 16 17 17 17 18 18 18 17 17 16 16 16 16 16 16 17 17 17 17 17 17 17 17 16 16 16 16 16 16 16 16 16
11 12 12 13 13 14 15 15 16 16 17 17 17 17 16 16 16 15 15 16 16 17 17 17 17 17 17 17 17 17 16 16 16 16 16 16 16 16
11 11 11 12 12 13 14 14 15 16 16 16 16 16 16 16 16 15 15 15 16 16 16 17 17 17 17 17 17 16 16 16 16 16 16 15 15 15
11 11 11 11 11 12 13 13 14 15 15 16 16 16 15 15 15 14 14 14 15 15 16 16 16 16 16 16 16 16 16 16 16 16 15 15 15 15
10 10 11 11 11 11 12 12 13 14 14 15 15 15 15 15 15 14 13 13 13 14 15 15 15 15 16 16 16 16 16 15 15 15 15 15 15 14
10 10 10 10 11 11 11 11 12 13 13 14 14 15 15 14 14 14 13 12 12 12 13 13 14 14 14 15 15 15 15 15 15 15 14 14 14 14
9 9 10 10 10 10 10 11 11 12 12 13 13 14 14 14 14 13 13 12 12 12 12 12 12 13 13 13 13 14 14 14 14 14 14 14 13 13
8 9 9 10 10 10 10 10 10 11 12 12 13 13 14 14 14 13 13 12 12 12 12 11 11 12 12 12 12 12 13 13 13 13 13 13 13 13
8 8 9 9 10 10 10 10 10 11 11 11 12 13 13 13 13 14 13 12 12 11 11 11 11 11 11 11 11 12 12 12 12 13 13 13 13 13
8 8 9 9 10 10 10 10 10 10 11 11 11 12 12 13 13 13 12 12 11 11 11 11 11 11 11 11 11 11 11 11 12 12 12 12 12 12
7 8 8 9 9 9 10 10 10 10 10 11 11 11 11 12 12 13 13 12 12 11 11 11 11 11 10 10 10 10 11 11 11 11 12 12 12 12
7 8 8 9 9 9 9 9 9 10 10 10 10 11 11 11 12 12 12 13 13 12 12 11 11 11 11 10 9 10 10 10 11 11 11 11 12 12
7 8 8 8 9 9 9 9 9 9 9 9 10 10 11 11 11 12 12 12 13 13 13 13 12 12 12 11 10 9 9 10 10 10 10 10 10 10
7 7 8 8 9 9 9 9 9 9 9 9 10 10 11 11 11 12 12 11 11 12 12 12 12 12 12 12 12 10 9 9 9 9 9 9 9 9
7 7 8 8 8 9 9 9 9 9 9 9 10 10 10 10 11 11 11 11 11 11 11 11 11 12 12 12 12 11 10 10 9 9 9 9 8 8
7 7 7 8 8 8 9 9 9 9 9 9 10 10 10 10 10 11 11 11 11 11 11 10 10 10 10 11 11 10 10 10 9 9 8 8 8 8
7 7 7 8 8 8 8 9 9 9 9 9 10 10 10 10 10 10 10 11 11 11 11 10 10 9 8 8 9 10 10 9 9 8 8 8 8 8
7 7 7 8 8 9 9 9 9 9 9 9 10 10 10 10 10 10 10 10 10 11 10 10 10 9 9 8 8 9 9 9 8 8 8 8 8 8
7 7 8 8 8 9 9 9 9 10 10 10 10 10 10 10 10 10 10 10 10 10 10 10 10 10 10 10 9 9 9 9 9 8 8 8 9 9
7 8 8 8 9 9 9 9 10 10 10 10 10 10 10 10 10 10 10 10 10 10 9 10 10 10 10 10 10 9 9 9 9 9 9 9 9 9
8 8 8 9 9 9 9 9 10 10 10 10 10 10 10 10 10 9 9 9 9 10 10 10 10 9 10 10 10 10 9 9 9 9 9 9 9 9
8 8 9 9 9 9 9 9 9 9 9 9 9 9 9 9 9 9 9 9 9 9 9 9 9 10 10 10 10 10 10 9 9 9 9 10 10 10
Wind_Speed
5 5 5 6 7 7 5 3 3 4 5 5 4 6 6 7 9 6 7 9 11 12 14 15 15 17 18 20 21 22 22 22 22 22 22 22 22 21
6 6 5 5 5 6 6 5 4 3 3 3 4 8 7 8 8 6 8 9 6 7 10 12 13 14 15 17 18 18 19 20 20 20 19 18 18 18
7 7 7 6 5 5 5 6 5 4 4 3 4 8 7 9 7 7 9 7 6 4 6 8 10 11 12 13 14 14 15 15 15 14 13 11 11 11
10 9 8 7 7 5 5 6 6 5 4 4 5 6 7 9 8 6 5 8 8 9 9 9 9 10 10 11 12 13 13 13 12 12 11 10 9 8
11 11 10 9 8 6 6 6 5 5 3 4 5 6 7 9 9 8 9 7 8 10 13 13 14 15 14 14 15 16 16 16 16 15 14 13 13 12
11 11 10 10 10 9 8 7 6 5 4 4 4 6 7 9 9 9 7 6 6 7 10 12 16 17 17 17 17 18 19 19 20 20 20 20 19 18
12 12 12 12 13 11 9 8 7 6 5 5 6 5 6 10 9 7 9 8 5 4 6 6 8 9 11 14 16 18 20 21 23 23 23 22 21 21
11 12 12 12 14 15 14 12 10 8 8 6 6 7 8 8 8 10 11 9 5 4 5 6 6 7 6 9 14 19 20 21 22 23 23 22 22 21
11 11 14 15 14 11 13 14 13 12 10 7 7 7 6 7 9 11 12 10 6 7 7 5 6 7 7 11 16 18 20 21 21 22 22 22 22 21
12 11 11 11 11 11 12 12 11 12 12 9 8 7 5 4 6 8 10 9 10 7 5 4 4 5 7 10 14 16 19 20 21 22 22 22 22 21
13 12 11 12 12 13 11 11 11 10 12 13 10 8 8 8 7 7 11 13 9 4 3 4 5 5 6 6 10 14 16 19 20 21 22 23 23 21
10 9 11 12 14 14 11 10 10 9 9 11 9 9 8 9 11 10 12 14 10 5 5 5 8 5 5 3 5 9 11 13 17 19 21 21 17 13
8 7 8 13 14 14 11 8 8 8 8 9 9 9 8 8 9 10 10 12 12 6 10 8 8 5 5 5 4 5 8 8 10 11 14 11 7 8
5 6 6 12 14 14 11 8 8 6 5 7 8 8 9 9 9 9 10 8 7 9 14 11 8 8 8 7 6 7 7 8 9 7 9 8 7 11
1 1 4 10 11 10 11 10 8 5 5 6 7 8 8 9 9 7 7 7 8 11 16 9 10 10 9 7 9 9 7 6 7 5 5 5 5 10
4 3 5 8 7 7 8 8 7 7 6 6 6 6 7 8 9 9 9 9 8 7 6 8 10 12 8 9 12 12 8 9 9 7 6 5 9 12
3 4 4 5 6 7 7 8 8 8 8 6 6 6 7 8 9 10 10 9 7 9 7 5 7 7 7 10 12 12 10 7 8 8 7 6 6 8
1 3 5 6 7 8 8 8 9 9 9 8 7 7 8 9 9 10 11 11 11 11 11 10 10 8 5 3 9 11 10 9 8 9 7 7 7 7
3 5 6 6 7 7 7 8 9 9 8 8 8 8 8 9 11 12 12 11 12 12 12 13 13 12 12 10 9 13 11 9 10 9 7 6 7 8
7 7 6 6 7 7 7 8 7 8 8 8 8 8 9 10 11 12 12 13 13 12 12 12 13 13 12 10 8 8 15 10 9 9 8 6 5 9
7 8 7 7 7 7 6 6 7 6 7 8 8 9 9 10 11 12 12 16 14 13 15 14 13 13 6 8 9 7 7 13 15 9 9 7 5 5
6 7 6 6 6 5 5 6 6 6 7 7 8 9 10 11 12 14 14 15 14 13 13 12 11 10 8 10 10 10 9 7 10 16 14 9 6 7
6 5 5 5 5 4 5 6 7 6 7 7 8 9 10 11 11 12 14 14 14 13 13 12 12 9 8 9 10 10 11 10 7 6 5 8 8 8
Wind_Direction
266 276 287 291 301 299 292 272 233 220 207 183 162 151 134 119 143 157 146 172 192 201 205 207 209 211 211 211 211 213 215 215 216 218 221 224 227 229
239 246 257 275 285 292 299 287 263 242 235 188 164 148 144 143 146 136 117 137 159 187 197 201 202 203 204 205 206 209 211 212 213 217 220 224 226 227
239 235 232 240 262 275 286 287 272 253 241 220 145 140 132 129 136 137 144 131 101 116 159 174 181 185 191 192 192 193 196 198 200 202 204 205 207 210
232 230 229 229 230 244 260 272 272 258 235 214 159 151 149 138 138 138 122 101 93 86 100 116 129 139 150 156 158 159 159 158 158 158 158 162 167 173
234 227 224 220 223 223 231 248 264 264 253 228 190 169 158 144 133 118 101 99 94 93 88 91 99 106 113 121 126 129 131 131 130 131 132 132 129 126
242 232 224 220 218 215 221 224 233 247 247 240 216 177 165 152 141 133 123 110 99 89 83 88 91 92 99 107 113 117 120 121 120 119 118 116 114 111
247 238 230 223 216 212 215 212 213 218 224 229 225 201 175 163 161 150 137 121 104 114 108 98 92 86 87 95 106 114 117 118 117 116 115 114 112 110
251 244 238 232 222 210 208 199 198 207 209 213 220 211 198 176 167 156 145 146 136 135 115 97 94 91 83 88 109 114 115 116 116 115 114 114 113 111
250 245 242 233 214 206 204 200 202 204 201 198 209 210 199 183 170 164 162 159 137 143 121 95 85 82 79 93 108 114 116 117 117 116 115 115 113 111
245 240 235 241 229 208 202 203 206 205 202 204 211 205 202 192 178 170 156 128 117 124 119 107 101 93 90 90 104 115 119 121 121 120 119 117 114 110
242 236 229 229 225 211 206 203 203 203 204 205 203 195 191 199 178 158 151 147 141 136 121 117 127 106 90 91 101 113 121 125 127 127 126 123 117 108
241 236 232 230 216 202 204 202 205 202 191 190 195 195 195 194 182 175 170 162 150 146 159 130 147 135 110 100 117 123 120 126 133 137 138 136 127 117
236 228 226 213 203 200 207 207 207 199 188 183 187 193 193 189 185 185 182 171 162 153 163 147 156 144 128 137 144 149 145 146 144 148 157 164 163 145
239 235 218 196 195 197 203 197 184 186 189 187 189 192 193 190 187 185 181 177 162 151 162 157 155 159 143 141 148 157 158 163 164 168 183 194 194 168
269 275 193 183 185 198 208 191 183 197 203 199 199 197 195 189 175 167 153 137 121 140 158 160 151 153 150 148 151 158 162 175 181 175 173 175 161 150
222 202 167 172 193 212 194 196 206 213 209 210 205 193 184 182 172 158 150 137 124 121 127 144 150 153 151 145 153 161 163 170 180 177 172 169 172 170
199 191 196 189 200 212 205 197 204 211 214 213 206 192 182 179 171 158 153 146 144 152 146 132 130 134 139 148 157 165 167 169 173 176 171 173 181 180
243 221 219 223 220 218 213 206 205 209 208 204 204 191 184 179 170 159 161 160 156 157 157 155 148 140 138 145 167 166 173 175 172 174 177 174 181 185
240 238 232 228 231 231 225 219 212 208 205 201 198 192 182 176 170 166 167 164 160 160 161 163 165 166 169 173 184 185 176 173 168 173 186 182 181 182
230 235 238 237 234 231 228 224 217 209 203 200 194 187 181 174 172 171 170 166 162 161 163 171 178 179 179 169 161 179 186 169 165 173 187 198 182 170
231 232 233 235 232 232 228 219 216 210 195 191 190 183 178 173 173 172 170 165 163 166 172 179 186 182 165 140 146 159 173 176 169 171 182 188 179 163
250 244 235 231 227 229 226 216 210 204 193 189 185 182 179 176 174 172 170 169 171 171 172 173 173 181 177 166 165 163 163 166 173 181 186 193 186 182
247 247 244 239 227 218 214 214 211 198 187 185 182 179 178 176 173 172 170 169 169 168 166 169 174 180 182 173 163 161 163 166 169 170 170 158 141 142
Height
1458 1459 1460 1462 1464 1466 1468 1470 1473 1474 1476 1478 1479 1482 1484 1486 1487 1490 1492 1494 1496 1498 1501 1504 1507 1510 1514 1517 1521 1524 1528 1531 1535 1538 1541 1544 1547 1549
1454 1454 1455 1457 1459 1461 1463 1465 1468 1470 1472 1473 1475 1477 1480 1482 1484 1486 1488 1490 1491 1494 1496 1500 1503 1506 1510 1513 1517 1520 1523 1527 1530 1533 1536 1539 1541 1544
1449 1449 1449 1451 1452 1455 1457 1460 1462 1466 1468 1470 1472 1474 1477 1479 1481 1484 1485 1487 1488 1490 1493 1496 1499 1502 1506 1509 1513 1516 1519 1522 1525 1528 1531 1533 1535 1538
1443 1443 1444 1445 1446 1448 1451 1453 1457 1460 1464 1466 1468 1470 1473 1476 1479 1481 1483 1483 1485 1487 1490 1492 1495 1498 1502 1506 1509 1512 1515 1517 1520 1523 1526 1528 1530 1532
1436 1437 1438 1439 1439 1441 1443 1447 1450 1454 1457 1461 1464 1467 1471 1473 1476 1479 1480 1481 1483 1485 1487 1489 1492 1495 1499 1502 1505 1508 1511 1513 1516 1518 1521 1523 1526 1528
1428 1430 1431 1432 1433 1435 1437 1440 1444 1447 1451 1455 1460 1463 1467 1470 1472 1475 1477 1479 1481 1483 1485 1487 1490 1493 1496 1499 1502 1505 1507 1510 1512 1515 1517 1520 1522 1525
1420 1422 1424 1426 1428 1429 1431 1433 1437 1440 1444 1448 1453 1458 1462 1465 1468 1471 1474 1477 1480 1482 1483 1486 1488 1491 1494 1497 1500 1503 1505 1508 1510 1513 1515 1518 1520 1522
1411 1414 1417 1420 1421 1424 1425 1427 1430 1433 1437 1442 1446 1451 1455 1459 1464 1467 1470 1473 1478 1481 1483 1485 1488 1490 1493 1496 1498 1501 1504 1506 1509 1511 1514 1517 1519 1521
1403 1406 1409 1412 1415 1417 1419 1421 1424 1427 1431 1436 1440 1444 1449 1454 1458 1462 1466 1470 1473 1477 1481 1484 1487 1490 1493 1496 1498 1501 1503 1506 1508 1511 1513 1516 1518 1521
1394 1398 1401 1405 1408 1411 1413 1415 1417 1420 1424 1428 1434 1439 1444 1448 1453 1458 1462 1467 1472 1476 1480 1482 1486 1489 1492 1495 1498 1501 1503 1506 1508 1511 1513 1515 1518 1520
1387 1390 1394 1398 1401 1405 1408 1410 1412 1414 1418 1422 1427 1432 1437 1442 1447 1453 1457 1462 1466 1472 1476 1479 1483 1486 1490 1494 1497 1500 1503 1505 1508 1510 1513 1515 1517 1519
1380 1384 1388 1392 1396 1399 1402 1405 1408 1410 1413 1416 1420 1425 1430 1436 1441 1446 1450 1455 1460 1466 1471 1475 1479 1484 1488 1492 1495 1498 1501 1504 1507 1510 1512 1514 1516 1518
1374 1378 1382 1386 1391 1395 1398 1401 1404 1407 1409 1412 1415 1420 1425 1430 1435 1440 1446 1450 1454 1459 1464 1470 1475 1479 1483 1487 1493 1497 1500 1503 1506 1508 1511 1513 1515 1517
1371 1374 1378 1382 1386 1390 1394 1398 1401 1404 1406 1409 1411 1415 1419 1424 1430 1435 1441 1447 1452 1457 1461 1466 1469 1474 1478 1483 1488 1493 1498 1501 1505 1507 1510 1512 1514 1516
1368 1371 1374 1378 1383 1387 1391 1394 1397 1400 1403 1406 1408 1411 1415 1420 1426 1432 1436 1442 1448 1454 1459 1463 1467 1471 1476 1479 1483 1488 1493 1498 1502 1506 1509 1511 1513 1515
1367 1369 1373 1376 1380 1384 1387 1390 1393 1396 1399 1402 1405 1408 1412 1416 1420 1425 1431 1437 1443 1449 1454 1460 1464 1469 1473 1477 1482 1485 1490 1494 1499 1503 1507 1510 1513 1515
1367 1369 1372 1374 1377 1381 1384 1386 1389 1392 1395 1398 1401 1404 1407 1411 1416 1421 1427 1432 1438 1443 1449 1456 1461 1467 1472 1475 1480 1484 1488 1492 1496 1501 1505 1508 1512 1514
1366 1368 1370 1372 1375 1377 1380 1382 1385 1387 1390 1393 1397 1400 1403 1407 1411 1417 1422 1428 1433 1439 1445 1451 1457 1463 1470 1475 1479 1482 1486 1490 1495 1499 1503 1507 1510 1513
1363 1365 1367 1369 1372 1374 1376 1378 1381 1383 1386 1389 1392 1395 1399 1403 1407 1412 1418 1423 1429 1435 1441 1447 1452 1457 1463 1468 1475 1480 1484 1488 1493 1497 1501 1505 1508 1511
1361 1363 1365 1366 1368 1370 1372 1374 1376 1379 1381 1384 1387 1391 1394 1398 1403 1408 1413 1419 1424 1431 1437 1443 1448 1453 1458 1464 1469 1476 1482 1486 1490 1494 1499 1504 1508 1511
1359 1360 1361 1363 1364 1366 1368 1370 1372 1374 1376 1379 1382 1386 1390 1394 1399 1404 1409 1415 1420 1426 1432 1438 1445 1453 1459 1465 1470 1474 1480 1484 1488 1492 1497 1501 1505 1507
1356 1357 1358 1359 1361 1362 1364 1365 1367 1369 1372 1374 1377 1381 1385 1390 1394 1399 1405 1410 1416 1423 1430 1437 1444 1450 1457 1461 1466 1471 1477 1482 1487 1492 1496 1499 1501 1504
1353 1354 1354 1355 1356 1358 1359 1361 1363 1365 1367 1369 1373 1376 1381 1385 1390 1396 1401 1407 1414 1420 1427 1434 1441 1448 1454 1460 1465 1470 1475 1479 1484 1489 1493 1497 1500 1502